Temp
11 11 11 11 11 11 11 11 11 11 11 11 10 10 10 10 9 9 8 8 8 8 8 8 8 7 7 7 6 6 6 6 6 5 5 5 5 5 5 5 5 5
11 11 11 11 11 10 10 10 10 11 11 10 10 10 10 9 9 9 8 8 8 8 8 8 7 7 7 6 6 6 6 6 5 5 5 5 5 5 5 5 5 5
11 11 11 10 10 10 10 10 10 10 10 10 10 10 10 9 9 8 8 8 7 7 7 7 7 7 7 6 6 6 6 5 5 5 5 5 5 5 5 4 4 4
11 11 10 10 10 10 10 10 10 10 10 10 10 10 9 9 9 8 8 7 7 7 7 7 7 7 6 6 6 6 5 5 5 5 5 5 5 5 5 4 4 4
11 10 10 10 10 10 10 10 10 10 10 10 10 9 9 9 8 8 7 7 7 7 7 7 7 7 6 6 6 6 5 5 5 5 5 5 5 4 4 4 4 4
10 10 10 10 10 10 10 10 10 10 10 10 10 9 9 9 8 7 7 7 6 6 6 7 7 7 6 6 6 5 5 5 5 5 5 5 5 4 4 4 4 4
10 10 10 10 10 10 10 10 10 10 10 10 9 9 9 8 8 7 7 6 6 6 6 6 6 6 6 6 6 5 5 5 5 5 5 5 4 4 4 4 4 4
10 10 10 10 10 10 10 10 10 10 10 9 9 9 8 8 8 7 7 7 7 6 6 6 6 6 6 6 6 5 5 5 5 5 5 5 4 4 4 4 4 4
10 10 10 10 10 9 10 10 9 9 9 9 9 8 8 8 8 7 7 7 7 7 6 6 6 6 6 5 5 5 5 5 5 5 5 4 4 4 4 4 4 4
10 10 10 10 9 9 10 9 9 9 9 9 8 8 8 8 8 7 7 7 6 6 6 6 6 6 6 5 5 5 5 5 5 5 4 4 4 4 4 4 4 4
10 10 10 10 9 9 10 9 9 9 9 9 8 8 8 8 7 7 6 6 6 6 6 6 6 6 6 5 5 5 5 5 5 4 4 4 4 4 4 4 4 4
10 10 10 9 9 9 9 9 9 9 9 8 8 8 7 7 6 6 6 6 6 6 6 6 6 6 5 5 5 5 5 4 4 4 4 4 4 4 4 4 3 3
10 10 10 9 9 9 9 9 9 9 8 8 8 7 6 6 6 6 6 6 6 6 6 5 5 5 5 5 5 5 4 4 4 4 4 4 4 3 3 3 3 3
10 10 9 9 9 8 8 9 9 9 8 8 7 6 6 6 6 6 6 6 6 6 6 5 5 5 5 5 5 5 4 4 4 4 4 4 4 3 3 3 3 3
9 9 9 8 8 8 8 9 9 8 8 7 7 6 6 6 6 5 5 5 5 5 6 5 5 5 5 5 5 5 4 4 4 4 4 4 3 3 3 3 3 3
9 9 8 8 8 8 9 9 9 8 7 6 6 6 6 6 5 5 5 5 5 5 5 5 5 5 5 5 5 5 5 5 4 4 4 4 3 3 3 3 3 3
9 9 8 8 8 8 9 9 8 7 7 6 6 6 6 6 5 5 5 5 5 5 5 5 5 5 5 5 5 5 5 4 4 4 3 3 3 3 3 3 3 3
9 9 8 8 8 9 9 8 8 7 6 6 6 6 6 6 5 5 5 5 5 5 5 5 5 5 5 5 5 4 4 4 4 4 3 3 3 3 3 3 3 3
9 8 8 8 8 8 8 8 7 7 6 6 6 6 6 6 5 5 5 5 5 5 5 5 5 5 5 5 5 4 4 4 4 4 3 3 3 3 3 3 3 3
8 8 8 8 8 8 8 7 7 6 6 6 6 6 6 5 5 5 5 5 5 5 5 5 5 5 4 4 4 4 4 4 4 4 3 3 3 3 3 3 2 2
8 8 8 8 8 8 7 7 6 6 6 6 6 5 5 5 5 5 5 5 5 4 4 5 5 4 4 4 4 4 3 3 3 3 3 3 3 3 3 2 2 2
8 8 8 7 7 7 7 6 6 6 6 5 5 5 5 5 5 5 5 4 4 4 4 4 4 4 4 3 3 3 3 3 3 3 3 3 3 3 3 2 2 2
8 7 7 7 7 7 6 6 6 6 5 5 5 5 5 4 4 4 4 4 4 3 3 4 4 4 4 3 3 3 3 3 3 3 3 2 2 2 2 2 2 2
7 7 7 7 7 7 6 6 6 6 5 5 5 5 5 5 4 4 4 4 4 3 3 3 3 3 4 4 3 3 3 2 2 2 2 2 2 2 2 2 2 2
7 7 7 7 7 7 6 6 6 6 6 5 5 5 5 5 5 4 4 4 4 4 3 3 3 3 3 4 4 3 3 3 3 3 2 2 2 2 2 2 2 2
7 7 7 7 7 7 6 6 6 6 6 6 5 5 5 5 5 5 4 4 4 4 3 3 3 3 3 4 4 3 3 3 2 2 2 2 2 2 2 2 2 2
Height
3200 3199 3199 3198 3197 3196 3195 3194 3193 3191 3190 3188 3186 3184 3182 3180 3179 3178 3176 3175 3174 3173 3172 3171 3170 3169 3168 3167 3166 3165 3164 3164 3163 3161 3160 3159 3159 3158 3157 3156 3155 3154
3197 3197 3197 3196 3195 3195 3194 3193 3191 3190 3188 3187 3185 3183 3181 3178 3177 3176 3175 3173 3172 3171 3170 3169 3168 3167 3167 3166 3164 3163 3163 3162 3161 3160 3158 3157 3157 3156 3155 3154 3152 3151
3196 3195 3195 3194 3194 3193 3192 3191 3190 3188 3187 3185 3183 3181 3179 3177 3176 3174 3173 3172 3171 3170 3169 3168 3167 3166 3165 3164 3163 3161 3160 3160 3159 3158 3157 3155 3155 3153 3152 3151 3150 3149
3194 3193 3193 3193 3192 3191 3190 3189 3188 3187 3185 3184 3182 3179 3178 3176 3174 3173 3171 3170 3169 3168 3167 3166 3165 3164 3163 3162 3161 3160 3159 3158 3157 3156 3155 3153 3152 3151 3150 3149 3148 3146
3192 3191 3191 3191 3190 3189 3188 3187 3186 3185 3183 3181 3180 3178 3176 3174 3172 3170 3169 3168 3167 3166 3165 3164 3163 3162 3161 3160 3159 3158 3157 3156 3155 3154 3153 3152 3150 3149 3147 3146 3145 3144
3189 3189 3189 3188 3188 3187 3186 3185 3184 3183 3181 3179 3178 3176 3174 3172 3170 3168 3167 3166 3165 3164 3163 3162 3161 3160 3159 3158 3157 3156 3155 3154 3153 3152 3151 3149 3148 3146 3145 3144 3143 3141
3186 3186 3186 3186 3185 3185 3184 3183 3182 3181 3179 3177 3176 3174 3172 3170 3168 3167 3166 3164 3163 3162 3161 3159 3158 3157 3156 3155 3154 3153 3152 3151 3150 3149 3148 3146 3145 3144 3142 3141 3140 3139
3184 3184 3184 3183 3183 3182 3181 3181 3180 3179 3177 3175 3173 3172 3170 3168 3167 3165 3164 3163 3162 3161 3159 3158 3156 3155 3154 3153 3152 3151 3150 3149 3148 3147 3145 3144 3142 3141 3139 3138 3137 3136
3181 3181 3181 3181 3180 3179 3179 3179 3178 3176 3174 3173 3171 3169 3167 3166 3165 3164 3163 3162 3161 3159 3158 3157 3155 3154 3153 3151 3150 3149 3148 3146 3145 3143 3142 3141 3139 3138 3137 3136 3134 3133
3178 3178 3178 3178 3177 3177 3177 3177 3176 3174 3172 3170 3169 3167 3165 3164 3163 3162 3161 3160 3159 3158 3157 3155 3154 3152 3151 3149 3148 3146 3145 3144 3142 3141 3139 3138 3137 3135 3134 3133 3131 3130
3175 3175 3175 3175 3175 3175 3175 3175 3173 3171 3170 3168 3167 3165 3163 3161 3160 3159 3158 3157 3157 3156 3155 3153 3152 3150 3149 3147 3146 3144 3143 3142 3140 3139 3137 3136 3134 3133 3132 3130 3129 3128
3172 3172 3172 3172 3172 3172 3173 3172 3171 3169 3167 3166 3164 3162 3160 3158 3157 3156 3155 3154 3154 3153 3152 3151 3149 3148 3147 3145 3143 3142 3141 3139 3138 3137 3135 3133 3132 3130 3129 3128 3126 3125
3169 3169 3169 3169 3170 3170 3170 3169 3168 3166 3165 3163 3160 3158 3157 3156 3155 3154 3154 3153 3152 3150 3149 3148 3147 3145 3144 3143 3141 3140 3138 3137 3136 3135 3133 3132 3130 3128 3127 3125 3124 3122
3166 3166 3166 3166 3167 3167 3167 3166 3165 3163 3162 3160 3158 3156 3156 3155 3155 3154 3153 3152 3150 3148 3147 3146 3144 3143 3141 3140 3139 3137 3136 3135 3134 3133 3132 3130 3129 3127 3125 3123 3122 3120
3163 3163 3163 3164 3164 3165 3164 3163 3162 3160 3159 3157 3156 3156 3155 3154 3153 3152 3151 3149 3148 3147 3145 3144 3143 3141 3140 3138 3137 3135 3134 3132 3131 3130 3129 3128 3126 3125 3123 3121 3119 3117
3160 3160 3161 3161 3162 3162 3161 3160 3159 3157 3156 3155 3154 3154 3153 3152 3151 3150 3149 3148 3147 3145 3144 3142 3141 3140 3138 3137 3135 3133 3131 3130 3128 3127 3125 3124 3124 3122 3121 3119 3117 3115
3157 3157 3158 3159 3160 3159 3158 3157 3156 3154 3153 3152 3152 3151 3150 3149 3149 3148 3147 3146 3145 3143 3142 3141 3139 3138 3136 3135 3133 3131 3129 3127 3125 3124 3123 3121 3120 3119 3118 3116 3114 3112
3154 3155 3156 3157 3157 3157 3156 3154 3152 3152 3151 3150 3149 3148 3148 3147 3147 3146 3144 3144 3143 3141 3140 3139 3137 3136 3134 3132 3130 3128 3126 3125 3123 3121 3120 3118 3117 3115 3114 3112 3111 3109
3152 3154 3154 3155 3155 3154 3152 3151 3150 3149 3149 3148 3147 3146 3146 3145 3144 3143 3142 3141 3140 3139 3138 3136 3135 3133 3131 3129 3127 3125 3124 3122 3120 3118 3117 3115 3114 3112 3111 3109 3107 3106
3150 3151 3152 3152 3152 3151 3149 3148 3148 3147 3146 3145 3145 3144 3144 3143 3142 3140 3139 3137 3136 3136 3135 3133 3132 3130 3128 3126 3124 3122 3120 3119 3117 3116 3114 3113 3111 3110 3108 3106 3104 3102
3147 3148 3149 3149 3149 3147 3146 3146 3145 3145 3144 3144 3143 3142 3141 3140 3139 3137 3135 3134 3133 3132 3131 3130 3128 3126 3124 3123 3121 3119 3117 3115 3114 3113 3111 3110 3109 3107 3105 3103 3101 3099
3144 3145 3146 3146 3145 3144 3143 3143 3143 3142 3142 3141 3140 3139 3138 3137 3135 3133 3132 3130 3129 3128 3127 3127 3125 3123 3121 3119 3117 3115 3113 3112 3111 3110 3108 3107 3106 3104 3102 3100 3098 3096
3141 3142 3143 3142 3141 3140 3140 3139 3140 3140 3139 3138 3137 3136 3134 3133 3131 3130 3128 3126 3125 3124 3124 3123 3122 3120 3118 3116 3114 3112 3110 3109 3108 3107 3105 3104 3103 3101 3099 3098 3096 3094
3139 3140 3140 3139 3138 3137 3136 3136 3136 3136 3136 3134 3133 3132 3131 3129 3128 3126 3124 3121 3119 3119 3119 3119 3118 3117 3115 3113 3110 3108 3107 3106 3105 3104 3102 3101 3100 3098 3096 3095 3093 3091
3136 3137 3136 3135 3134 3133 3132 3132 3132 3132 3131 3131 3129 3128 3127 3126 3124 3121 3119 3117 3115 3115 3114 3113 3114 3113 3111 3109 3107 3106 3104 3103 3102 3101 3099 3098 3097 3095 3094 3092 3090 3088
3133 3133 3132 3130 3129 3128 3128 3127 3126 3126 3126 3126 3125 3124 3122 3121 3119 3117 3116 3115 3115 3113 3111 3109 3109 3109 3108 3106 3105 3103 3101 3100 3099 3098 3096 3095 3093 3092 3091 3089 3088 3086
Wind_Speed
11 13 14 16 17 18 20 22 25 27 29 29 27 24 22 20 19 18 17 16 16 16 16 16 16 16 16 15 15 15 15 15 16 17 18 18 18 18 17 17 17 18
12 13 15 16 17 18 20 22 25 27 28 29 27 24 22 20 19 18 17 16 16 15 15 16 16 15 15 15 15 15 15 15 15 16 17 17 18 18 18 18 18 18
14 15 16 17 18 18 20 23 25 26 28 29 28 25 22 20 19 18 17 16 15 15 15 15 15 15 15 15 15 15 15 14 15 16 17 17 18 18 19 19 18 18
17 17 17 18 18 19 20 23 25 26 28 29 29 25 22 19 18 17 16 15 14 14 15 14 14 14 15 14 14 15 15 14 14 15 17 18 19 19 20 20 19 19
19 19 18 19 20 20 22 24 26 27 28 30 28 25 22 21 19 16 15 15 14 14 14 14 14 14 14 14 14 14 14 14 14 15 16 18 19 19 20 20 20 20
21 21 21 22 22 22 23 26 28 27 28 29 28 25 23 21 18 15 14 14 14 14 14 14 14 14 14 14 13 13 13 14 15 16 17 18 19 19 19 20 20 21
24 24 24 24 23 23 24 27 29 28 28 29 27 24 22 19 16 14 13 13 13 14 14 14 14 15 16 16 14 14 14 15 16 17 18 18 19 19 20 20 20 21
26 26 26 25 24 24 25 28 29 28 28 28 26 23 20 17 15 13 12 12 12 12 13 14 14 16 17 17 16 16 16 16 17 17 18 18 19 20 21 21 21 21
29 28 27 26 25 24 26 29 29 28 28 27 25 21 19 17 15 13 11 11 11 11 12 13 14 15 16 17 17 17 17 18 19 18 18 18 19 20 21 22 22 21
31 30 29 27 26 26 29 31 28 27 28 26 23 20 18 17 15 12 11 10 10 11 12 13 14 15 17 17 18 19 19 19 20 19 19 19 19 20 21 22 22 21
33 32 31 29 27 27 30 29 26 27 27 24 22 20 18 17 15 14 14 13 13 13 13 14 15 17 18 18 19 19 19 19 20 20 20 20 20 21 21 21 21 21
35 34 33 30 27 27 28 26 25 27 26 23 22 20 18 16 16 17 17 17 17 17 16 17 17 18 18 18 18 18 19 19 20 20 20 20 20 20 21 21 21 21
36 35 34 31 27 26 26 25 25 26 25 23 21 18 16 16 17 18 18 18 19 19 19 19 20 20 19 18 18 18 19 19 19 19 19 19 20 20 20 20 20 21
36 35 33 30 27 26 25 24 25 25 23 20 18 15 15 16 17 17 17 18 19 20 21 21 21 21 20 19 18 18 19 19 19 19 18 18 19 19 20 20 20 20
35 35 33 29 26 26 25 24 24 23 20 18 15 14 15 16 17 18 18 18 19 20 21 21 21 20 19 19 18 18 19 19 19 19 19 18 18 19 20 20 20 20
35 35 31 27 25 25 24 24 23 21 19 17 16 16 17 18 19 19 18 18 18 19 20 21 20 20 19 19 19 19 19 19 20 20 19 19 20 20 20 20 20 20
32 30 27 24 23 23 23 23 21 18 17 16 17 18 19 19 19 20 19 19 18 19 20 20 21 21 21 20 20 20 20 20 20 20 20 21 21 21 21 20 20 20
24 22 22 21 22 23 23 21 18 16 15 16 18 19 19 18 19 21 21 20 20 20 20 20 21 22 23 22 22 21 21 21 21 21 22 22 22 23 23 23 22 21
17 18 19 20 21 22 21 18 16 15 15 16 18 19 19 20 20 22 23 22 22 23 23 22 22 23 24 24 22 21 22 23 22 22 22 22 23 24 25 24 23 23
16 17 17 18 20 20 18 16 16 16 17 18 19 20 21 22 23 23 24 24 24 25 26 25 24 24 25 23 21 20 22 23 23 23 23 23 23 24 24 23 23 23
15 16 17 18 19 18 16 16 16 18 19 19 21 23 24 25 24 24 24 25 26 26 26 26 25 26 25 23 20 20 22 23 23 23 23 23 23 22 22 22 22 23
14 16 18 18 17 16 15 15 17 19 20 21 22 24 26 26 25 26 28 28 26 26 25 25 26 26 24 22 21 21 23 23 23 23 23 23 23 22 21 21 22 23
14 17 17 16 15 15 14 16 18 19 20 22 24 25 27 28 28 28 29 28 26 26 26 24 25 26 24 21 22 23 24 24 23 22 23 23 23 22 20 21 22 23
14 17 17 15 14 14 15 17 19 20 22 24 26 27 28 30 31 32 33 31 25 23 24 24 25 26 24 22 23 24 25 24 22 22 23 23 23 21 20 20 22 23
16 17 16 15 14 14 16 18 19 21 23 25 26 26 27 28 29 31 33 33 27 21 20 22 24 25 24 23 23 24 23 22 22 22 22 23 22 20 19 20 22 24
16 15 14 14 14 15 17 19 21 22 23 25 26 27 27 27 27 27 27 27 27 25 23 22 22 24 24 22 22 22 22 22 24 24 23 22 22 20 19 20 22 24
Wind_Direction
297 308 313 318 322 327 331 333 335 336 339 342 343 341 338 335 332 329 327 326 325 324 323 322 320 317 316 314 311 310 308 307 304 302 302 304 305 305 304 302 301 302
286 298 304 310 316 321 327 330 332 334 336 340 341 340 339 336 331 327 325 324 323 321 319 317 315 314 313 311 310 308 306 303 302 301 302 304 304 305 304 303 302 301
278 288 295 302 310 317 324 327 329 331 333 336 338 339 340 335 328 324 322 321 320 317 314 312 311 310 310 310 309 307 303 301 301 301 302 303 303 304 303 303 303 303
274 281 289 296 303 311 320 326 327 327 329 333 336 339 339 333 327 323 320 317 315 313 311 310 309 308 308 308 306 304 301 299 298 298 298 298 300 301 302 303 305 306
272 278 285 291 297 305 315 322 324 323 326 332 335 337 337 333 329 323 317 314 313 313 311 311 311 310 308 306 304 303 301 299 298 295 294 296 299 301 303 305 307 307
270 276 282 287 293 299 308 316 320 320 324 331 333 335 336 333 328 321 315 314 315 316 314 313 313 312 311 309 308 308 307 305 301 298 299 301 303 304 306 307 308 307
267 274 280 284 290 296 302 312 315 316 323 330 332 334 335 331 326 320 315 313 313 316 319 319 316 314 316 318 318 315 312 307 304 304 307 307 307 307 307 307 308 307
264 271 276 281 288 293 301 309 312 314 322 329 331 333 334 332 329 324 316 309 307 312 319 322 319 316 317 319 320 316 311 308 308 310 311 310 308 308 308 309 309 308
262 268 272 278 284 290 299 307 309 313 322 328 329 333 335 334 333 328 320 313 310 312 317 319 319 318 318 318 318 315 312 312 313 314 313 310 307 308 309 310 310 311
261 266 269 275 280 288 300 305 306 312 322 326 330 334 336 335 333 328 324 321 319 318 318 319 321 322 322 320 317 315 314 314 314 313 312 309 307 308 309 310 311 311
261 264 268 273 278 289 301 303 303 313 321 325 330 334 337 339 338 337 336 334 331 328 326 326 325 324 322 318 315 313 313 313 312 311 311 310 310 310 309 309 309 308
260 264 267 270 276 289 299 298 302 313 319 324 331 337 344 349 347 345 342 337 334 330 328 326 323 321 318 315 314 313 313 313 312 310 310 310 310 309 308 308 307 305
260 262 266 269 274 288 295 296 304 313 319 326 335 344 354 357 351 345 341 337 334 331 327 325 322 320 318 316 316 314 313 312 310 308 308 308 308 307 306 305 304 303
257 261 265 267 276 289 294 296 305 313 320 330 340 347 352 351 345 340 337 337 336 331 327 324 321 319 317 316 315 313 311 308 306 305 305 306 308 307 305 303 301 302
256 260 262 267 280 291 293 296 305 313 322 334 340 340 339 336 335 334 332 333 333 330 327 323 320 317 314 313 312 309 308 306 306 306 306 306 308 306 305 303 302 303
256 260 263 273 286 289 289 296 305 314 326 336 338 335 332 330 330 330 328 327 325 325 324 321 316 314 312 312 311 308 307 307 307 307 306 305 305 303 303 302 302 302
260 266 271 280 284 283 287 297 307 319 329 335 335 331 328 326 326 325 324 324 322 320 320 319 316 313 312 311 309 306 307 307 306 305 304 304 304 304 304 303 301 301
267 275 279 278 277 281 290 300 311 323 329 330 329 326 324 322 321 319 320 323 322 318 316 317 316 314 313 311 308 305 305 305 304 304 304 305 306 307 306 304 302 301
269 273 271 270 275 283 293 301 313 322 323 323 321 317 316 316 315 315 316 317 319 320 319 319 317 313 312 312 308 304 302 302 303 304 305 306 307 308 306 304 303 302
265 263 262 268 276 284 293 303 313 318 318 317 314 310 310 311 309 309 310 312 315 318 321 321 318 313 311 310 306 302 300 301 302 303 304 306 307 308 306 303 301 302
256 254 260 270 278 286 296 305 312 314 313 311 308 305 305 304 302 303 304 305 308 312 315 318 317 315 311 306 302 300 299 300 301 303 304 305 306 306 305 302 301 302
248 254 263 271 279 289 298 306 309 310 309 306 302 301 299 297 296 297 296 294 297 302 305 310 315 314 310 304 301 300 300 299 299 301 302 304 304 303 302 302 302 303
247 257 263 269 279 290 298 302 303 301 299 295 291 289 289 288 286 286 286 285 289 295 298 303 310 309 305 301 301 301 300 298 296 297 299 301 302 301 299 300 302 303
244 251 257 266 277 287 293 294 295 296 297 297 294 291 292 293 288 281 275 271 273 284 292 297 302 303 300 300 301 301 300 297 294 293 296 299 300 298 297 299 301 302
234 243 254 266 276 287 294 295 298 303 305 305 304 302 303 304 300 292 283 275 270 273 281 288 294 297 297 297 299 299 296 294 292 292 294 298 297 295 296 298 299 301
234 248 263 276 289 299 301 300 302 305 306 306 304 301 301 304 308 309 305 296 289 281 275 277 283 288 293 295 295 295 293 293 293 293 294 296 296 295 296 296 297 298